OpenBCM V1.13 (Linux)

Packet Radio Mailbox

DB0FHN

[JN59NK Nuernberg]

 Login: GUEST





  
I0OJJ  > AMSAT    27.08.26 22:48l 328 Lines 15500 Bytes #999 (0) @ WW
BID : 35K_IR0EQ
Read: DJ6UX GUEST
Subj: 2Line Orbital Elements
Path: DB0FHN<DB0FFL<OE2XZR<OK1TOR<SR6DWH<SR6BBA<SR1BSZ<EA2RCF<IR0EQ
Sent: 260805/0025z @:IR0EQ.ITA.EU [Rome] $:35K_IR0EQ

>From i0ojj@rgate.ampr.org Wed Aug  5 02:25:36 2026
Received: from rgate.ampr.org by rgate.ampr.org (JNOS2.0q.1) with SMTP
	id AA4088 ; Wed, 05 Aug 2026 02:25:36 +0200
Received: by rgate.ampr.org with SMTP
	id AA4085 ; Wed, 05 Aug 2026 02:25:29 +0200
Message-Id: <4086@rgate.ampr.org>
>From: i0ojj@rgate.ampr.org

SB KEPS @ AMSAT  $ORB26217.1
2Line Orbital Elements 26217.AMSAT

QST de W1STR

AMSAT Orbital Elements for Amateur Satellites in TLE Format
>From Orbital Analysis Office
New England Sci-Tech STEM Education Center
Natick MA August 05, 2026
To all radio amateurs


These element sets describe the orbits of various satellites 
in use by the amateur radio community. For details see:
www.amsat.org/keplerian-elements-formats/

A daily update of element sets is available at:
www.amsat.org/tle/daily-bulletin.txt
or without bulletin text:
www.amsat.org/tle/dailytle.txt


AO-07
1 07530U 74089B   26215.87517428 -.00000049  00000-0 -15923-4 0  9990
2 07530 101.9913 229.6195 0012515  41.7235  79.0336 12.53698911366492
UO-11
1 14781U 84021B   26215.87491010  .00001201  00000-0  12741-3 0  9994
2 14781  97.8096 180.9303 0008479  36.3666 323.8127 14.90900160264237
LO-19
1 20442U 90005G   26215.62446449  .00000076  00000-0  43623-4 0  9996
2 20442  98.8844 238.7348 0012597  69.3150 290.9383 14.34135738909199
AO-27
1 22825U 93061C   26215.68772195  .00000074  00000-0  45013-4 0  9997
2 22825  98.6851 283.0769 0007657 327.7547  32.3167 14.30953563713791
FO-29
1 24278U 96046B   26215.55387475 -.00000004  00000-0  34161-4 0  9992
2 24278  98.5206  57.9329 0349388 333.7017  24.6745 13.53276223479573
GO-32
1 25397U 98043D   26215.82948481  .00000036  00000-0  35944-4 0  9998
2 25397  99.0102 209.7971 0002365  83.7397 276.4051 14.24436745458111
ISS
1 25544U 98067A   26215.79638706  .00007444  00000-0  14146-3 0  9990
2 25544  51.6316  64.4821 0007225   9.2337 350.8783 15.49332738579133
NO-44
1 26931U 01043C   26215.86345576  .00000097  00000-0  67200-4 0  9994
2 26931  67.0509 120.9596 0005731 268.2899  91.7547 14.31972099297277
SO-50
1 27607U 02058C   26215.96335912  .00001025  00000-0  13788-3 0  9999
2 27607  64.5535 341.1556 0073878 253.6899 105.6073 14.83141205271542
CO-55
1 27844U 03031E   26215.45411773  .00000220  00000-0  11388-3 0  9998
2 27844  98.6753 223.4216 0010570  53.0121 307.2023 14.24362162198400
RS-22
1 27939U 03042A   26215.96887876  .00000803  00000-0  13164-3 0  9993
2 27939  98.3481  41.6835 0012376 113.9207  47.5291 14.73546761222585
CO-65
1 32785U 08021C   26215.90512397  .00004982  00000-0  31169-3 0  9994
2 32785  97.8315 198.3402 0007591 217.2351 142.8352 15.09867996992397
CO-66
1 32791U 08021J   26215.50785567  .00020016  00000-0  60397-3 0  9999
2 32791  97.7543 215.7249 0004671 121.5314 238.6385 15.34313094994543
RS-30
1 32953U 08025A   26215.90245565  .00000056  00000-0  33066-3 0  9991
2 32953  82.5081 325.7621 0019299 204.3383 155.6787 12.43181618825624
SRMSAT
1 37841U 11058D   26215.10297538  .00000368  00000-0  55858-4 0  9991
2 37841  19.9709 135.4933 0011633   0.9380 137.5049 14.11584649764450
ZACUBE-1
1 39417U 13066B   26215.86214339  .00004532  00000-0  34860-3 0  9990
2 39417  97.7989 178.4247 0043503  92.1915 268.4291 15.01459528687889
Delfi-N3xt
1 39428U 13066N   26215.75580683  .00007012  00000-0  60146-3 0  9990
2 39428  97.8304 136.0305 0075247  49.2423 311.5297 14.95618600681739
GOMX-1
1 39430U 13066Q   26215.98486457  .00001058  00000-0  16536-3 0  9990
2 39430  97.6455  53.4325 0126901 284.1678  74.5458 14.69585004676930
LO-74
1 39440U 13066AA  26215.81884053  .00003002  00000-0  27836-3 0  9993
2 39440  97.8928 165.0164 0055686 228.3137 131.3310 14.94080480684103
AO-73
1 39444U 13066AE  26215.84203147  .00007451  00000-0  45394-3 0  9990
2 39444  97.8317 188.3115 0037244  44.1759 316.2433 15.10100721686851
DTUSAT-2
1 40030U 14033W   26215.25473294  .00006179  00000-0  32907-3 0  9997
2 40030  98.0891 215.9956 0009628  78.7132 281.5180 15.15586915659814
LILACSAT-2
1 40908U 15049K   26215.91263795  .00020177  00000-0  32405-3 0  9992
2 40908  97.4607 254.6090 0008580  85.1226 275.1007 15.53028441603157
Lapan A3
1 41603U 16040E   26215.96392604  .00003058  00000-0  96996-4 0  9999
2 41603  97.1522 210.5562 0009571 192.7700 167.3302 15.33388195562136
CAS-2T
1 41847U 16066G   26215.81886847  .00000498  00000-0  79400-4 0  9994
2 41847  98.3799 291.0104 0341031 345.2444  13.8981 14.44797417511674
TechnoSat
1 42829U 17042E   26215.71825816  .00003535  00000-0  25126-3 0  9998
2 42829  97.4341  11.5897 0016338 293.2819  66.6688 15.05206768493850
AO-91
1 43017U 17073E   26215.89164675  .00008197  00000-0  35188-3 0  9998
2 43017  97.4639  82.1344 0149312 163.1703 197.4561 15.13335367472607
S-Net D
1 43186U 18014G   26215.69398755  .00004979  00000-0  25469-3 0  9992
2 43186  97.5300 120.1884 0007195 201.5473 158.5459 15.17082682465963
S-Net B
1 43187U 18014H   26215.70638657  .00004571  00000-0  23427-3 0  9993
2 43187  97.5306 120.1887 0007950 197.5159 162.5801 15.17051464465967
S-Net A
1 43188U 18014J   26215.69260606  .00004960  00000-0  25361-3 0  9998
2 43188  97.5316 120.3930 0007845 198.1791 161.9163 15.17090702465964
S-Net C
1 43189U 18014K   26215.71053390  .00004165  00000-0  21379-3 0  9994
2 43189  97.5334 120.4928 0009388 191.9913 168.1098 15.17041122464512
Ten-Koh
1 43677U 18084G   26215.52401082  .00001534  00000-0  11853-3 0  9990
2 43677  98.0764  49.8858 0008356 331.0810  28.9950 15.03120756423274
PO-101
1 43678U 18084H   26215.98198657  .00001720  00000-0  14111-3 0  9999
2 43678  98.1213  54.2894 0011398  20.4973 339.6705 15.00627953423384
QO-100
1 43700U 18090A   26215.66665450  .00000153  00000-0  00000-0 0  9995
2 43700   0.0036 118.7341 0002554  50.7429  48.5428  1.00271250 28158
MinXSS-2
1 43758U 18099A   26215.71641976  .00040896  00000-0  72061-3 0  9997
2 43758  97.4494 293.5008 0008035  99.0391 261.1770 15.50285206421487
AO-95
1 43770U 18099N   26215.64662440  .00012993  00000-0  48223-3 0  9992
2 43770  97.4345 275.7404 0009041 169.0951 191.0486 15.27675363420469
SNUSat 2
1 43782U 18099AA  26215.59849001  .00008346  00000-0  36214-3 0  9993
2 43782  97.4019 268.2666 0011726 125.4627 234.7706 15.22528651420244
SnugLite
1 43784U 18099AC  26215.89408051  .00011677  00000-0  42762-3 0  9990
2 43784  97.3828 269.7274 0004628 113.8625 246.3100 15.28170615420602
ITASat 1
1 43786U 18099AE  26215.70465170  .00006453  00000-0  30555-3 0  9990
2 43786  97.3991 266.2770 0012562 178.5414 181.5860 15.19609475420129
EAGLET 1
1 43790U 18099AJ  26215.93185103  .00003663  00000-0  20926-3 0  9996
2 43790  97.4196 264.3373 0011334 171.9135 188.2281 15.13272810419552
ESEO
1 43792U 18099AL  26215.87334526  .00000676  00000-0  52521-4 0  9994
2 43792  97.3941 251.2172 0012376 162.5577 197.6077 15.04374119418973
JO-97
1 43803U 18099AX  26215.89810886  .00018312  00000-0  53798-3 0  9999
2 43803  97.4093 278.9380 0007195 102.7429 257.4619 15.35154800420941
Suomi 100
1 43804U 18099AY  26215.72069491  .00013102  00000-0  45975-3 0  9990
2 43804  97.4150 275.9629 0011442 111.3096 248.9367 15.29490427420682
ISAT
1 43879U 18111D   26215.32507207  .00170842  00000-0  10884-2 0  9990
2 43879  97.5835 154.5178 0009270 116.6442 243.5774 15.75868769418561
UWE-4
1 43880U 18111E   26215.54631174  .00040581  00000-0  74663-3 0  9999
2 43880  97.5827 146.2179 0009066 135.6414 224.5564 15.49045533418109
Sparrow
1 43881U 18111F   26215.82291316  .00648455  19107-3  12844-2 0  9998
2 43881  97.6028 161.9184 0011507 147.6345 212.5640 15.99861267418919
Prox-1
1 44339U 19036A   26215.97032465  .00012823  00000-0  12154-2 0  9995
2 44339  23.9938 154.7935 0006017 226.0544 133.9460 14.91674447380611
Taurus 1
1 44530U 19059C   26215.95062171  .00008269  00000-0  13071-2 0  9996
2 44530  98.6460  23.7695 0009193 155.2502 204.9146 14.72567214365677
TO-108
1 44881U 19093C   26215.97016141  .00001011  00000-0  11993-3 0  9991
2 44881  97.7503 287.0322 0012053 292.9971  66.9973 14.86589356358519
RS-44
1 44909U 19096E   26215.77315520  .00000023  00000-0  44331-4 0  9991
2 44909  82.5242 308.0898 0217984  33.3872 328.0758 12.79748848308433
SALSAT
1 46495U 20068K   26215.55781908  .00007958  00000-0  27281-3 0  9995
2 46495  97.8870 221.5328 0011066 130.0056 230.2156 15.30431016322607
CSS (TIANHE-1)
1 48274U 21035A   26215.88909325  .00020511  00000-0  26197-3 0  9993
2 48274  41.4692  32.4131 0001006 278.9657  81.1067 15.58767623300611
TeikyoSat 4
1 49396U 21102B   26215.64730997  .00001539  00000-0  99241-4 0  9995
2 49396  97.3657 243.2856 0013397 125.2548 234.9938 15.09661980259885
Z-Sat
1 49399U 21102E   26215.90925488  .00004306  00000-0  21046-3 0  9990
2 49399  97.3298 249.7875 0018266  81.6625 278.6680 15.18608449260682
KOSEN 1
1 49402U 21102H   26215.64617247  .00007934  00000-0  29684-3 0  9993
2 49402  97.3154 256.8932 0014537  46.1339 314.1098 15.27481345261264
HO-113
1 50466U 21131B   26215.95315543  .00000148  00000-0  59333-4 0  9990
2 50466  98.4985 308.0857 0003291 330.9397  29.1608 14.41396501241991
SNUGLITE 2
1 52899U 22065F   26215.86105282  .00000776  00000-0  15587-3 0  9995
2 52899  98.2264   0.6252 0006494 227.0028 133.0630 14.64427122217970
UmKA 1 (RS40S)
1 57172U 23091G   26215.91956112  .00005542  00000-0  25036-3 0  9992
2 57172  97.5012 274.4406 0011155 318.3759  41.6626 15.21321429171266
CubeBel-2 (EU11S)
1 57175U 23091K   26215.93564650  .00012817  00000-0  43964-3 0  9992
2 57175  97.5011 279.6080 0007840 310.4766  49.5791 15.30273955171608
RS-38S
1 57189U 23091Z   26215.94171569  .00017092  00000-0  46670-3 0  9998
2 57189  97.5055 286.4258 0005493 250.9955 109.0694 15.37472808172020
